Weather in Trubnikov Bor

Russia / Saint-Petersburg and Leningrad Oblast     59°16′00″N   31°23′52″E
temp.,
°C
wind,
m/s
gust,
m/s
humid.,
%
clouds,
%
prec.,
mm/h
press.,
hPa
HPBL,
m
16 october, sat
sat1600:00+8s71691100 1.3 9991100
03:00+9sw51189100 2.3 9981022
06:00+7wsw5127695 0.2 1000801
09:00+6sw51176100 0.2 1001971
12:00+8wsw611665 0.0 10021437
15:00+8wsw6126215 0.1 10021641
18:00+6wsw5126484 0.0 1003864
21:00+6sw6127399 0.0 10031049
17 october, sun
sun1700:00+5sw51189100 0.1 10021025
03:00+5sw51384100 0.1 1001688
06:00+6wsw6138113 0.2 1001807
09:00+6wsw51172100 0.3 10021503
12:00+8wsw510685 0.1 10031291
15:00+7wsw6116291 0.4 10031603
18:00+5wsw5116723 0.0 1005724
21:00+4sw412785 0.1 1005543
18 october, mon
mon1800:00+4wsw412795 0.0 1005590
03:00+3sw4118464 0.0 1004449
06:00+3wsw4128253 0.0 1003657
09:00+2wsw5129498 0.1 1003688
12:00+3w51096100 0.3 1004953
15:00+4wnw489294 0.9 1006845
18:00+3wnw388031 0.3 1008278
21:00+2wnw310875 0.3 1010398
19 october, tue
tue1900:00+3nw498697 0.0 1012703
03:00+2nw399193 0.2 1014470
06:00+2nw31092100 0.1 1015447
09:00+1nw3990100 0.1 1017434
12:00+3nw467491 0.0 1018921
15:00+3nw467191 0.2 10191088
18:00+1nw377697 0.3 1021494
21:00−1nw258470 0.3 1022136
20 october, wed
wed2000:00−2wnw238149 0.0 102288
03:00−1wsw1275100 0.0 102189
06:00−1ssw247789 0.0 1020143
09:000s3876100 0.0 1018409
12:00+2s51266100 0.0 1015727
15:00+1sse61589100 0.6 1010730
18:00+2s71793100 3.5 1004949
21:00+4s81789100 5.1 9981030